When you browse on this site, cookies collect data to enhance your experience and personalize the content and advertising you see.
Visit our Privacy Policy to learn more. By continuing to use the site, you agree to this use of cookies and data.

Meteo orario Solden

Oggi, 14 Agosto, Venerdi

Tempo Temperatura Precipitazioni Vento Pressione Umidità
00:00 +8°C° 0.1 mm 1 m/s 584 mm Hg 89%
01:00 +8°C° 0.1 mm 1 m/s 584 mm Hg 89%
02:00 +8°C° 0 mm 1 m/s 584 mm Hg 89%
03:00 +8°C° 0 mm 1 m/s 584 mm Hg 88%
04:00 +8°C° 0 mm 1 m/s 584 mm Hg 88%
05:00 +9°C° 0.2 mm 1 m/s 584 mm Hg 87%
06:00 +10°C° 0.2 mm 1 m/s 585 mm Hg 86%
07:00 +11°C° 0.2 mm 1 m/s 586 mm Hg 85%
08:00 +11°C° 0.5 mm 1 m/s 586 mm Hg 84%
09:00 +12°C° 0.5 mm 1 m/s 586 mm Hg 83%
10:00 +13°C° 0.5 mm 1 m/s 586 mm Hg 82%
11:00 +13°C° 1 mm 1 m/s 586 mm Hg 79%
12:00 +14°C° 1 mm 1 m/s 586 mm Hg 77%
13:00 +13°C° 1 mm 0 m/s 587 mm Hg 74%
14:00 +14°C° 1.1 mm 1 m/s 586 mm Hg 78%
15:00 +13°C° 1.1 mm 1 m/s 585 mm Hg 82%
16:00 +12°C° 1.1 mm 1 m/s 585 mm Hg 86%
17:00 +11°C° 0.6 mm 1 m/s 585 mm Hg 87%
18:00 +11°C° 0.6 mm 1 m/s 585 mm Hg 89%
19:00 +10°C° 0.6 mm 1 m/s 584 mm Hg 91%
20:00 +9°C° 0 mm 1 m/s 584 mm Hg 91%
21:00 +8°C° 0 mm 1 m/s 584 mm Hg 90%
22:00 +8°C° 0 mm 1 m/s 584 mm Hg 90%
23:00 +7°C° 0 mm 1 m/s 584 mm Hg 89%

Domani, 15 Agosto, Sabato

Tempo Temperatura Precipitazioni Vento Pressione Umidità
00:00 +7°C° 0 mm 1 m/s 584 mm Hg 88%
01:00 +7°C° 0 mm 1 m/s 583 mm Hg 88%
02:00 +7°C° 0 mm 1 m/s 583 mm Hg 87%
03:00 +7°C° 0 mm 1 m/s 583 mm Hg 87%
04:00 +7°C° 0 mm 1 m/s 583 mm Hg 86%
05:00 +8°C° 0 mm 1 m/s 584 mm Hg 84%
06:00 +9°C° 0 mm 1 m/s 584 mm Hg 83%
07:00 +10°C° 0 mm 1 m/s 585 mm Hg 81%
08:00 +12°C° 0 mm 1 m/s 586 mm Hg 72%
09:00 +14°C° 0 mm 1 m/s 587 mm Hg 63%
10:00 +16°C° 0 mm 1 m/s 588 mm Hg 54%
11:00 +18°C° 0.1 mm 1 m/s 588 mm Hg 52%
12:00 +19°C° 0.1 mm 1 m/s 588 mm Hg 50%
13:00 +19°C° 0.1 mm 1 m/s 588 mm Hg 48%
14:00 +19°C° 0.3 mm 1 m/s 588 mm Hg 50%
15:00 +19°C° 0.3 mm 1 m/s 588 mm Hg 52%
16:00 +18°C° 0.3 mm 1 m/s 587 mm Hg 54%
17:00 +16°C° 0.4 mm 1 m/s 586 mm Hg 65%
18:00 +14°C° 0.4 mm 1 m/s 585 mm Hg 75%
19:00 +11°C° 0.4 mm 0 m/s 584 mm Hg 86%
20:00 +11°C° 0 mm 1 m/s 584 mm Hg 87%
21:00 +10°C° 0 mm 1 m/s 584 mm Hg 89%
22:00 +9°C° 0 mm 1 m/s 584 mm Hg 90%
23:00 +8°C° 0 mm 1 m/s 583 mm Hg 90%

Dopodomani, 16 Agosto, Domenica

Tempo Temperatura Precipitazioni Vento Pressione Umidità
00:00 +8°C° 0 mm 1 m/s 583 mm Hg 90%
01:00 +8°C° 0 mm 1 m/s 583 mm Hg 90%
02:00 +7°C° 0 mm 1 m/s 583 mm Hg 90%
03:00 +7°C° 0 mm 1 m/s 582 mm Hg 90%
04:00 +7°C° 0 mm 1 m/s 582 mm Hg 90%
05:00 +8°C° 0 mm 1 m/s 583 mm Hg 87%
06:00 +9°C° 0 mm 0 m/s 584 mm Hg 83%
07:00 +10°C° 0 mm 0 m/s 584 mm Hg 80%
08:00 +12°C° 0 mm 0 m/s 585 mm Hg 73%
09:00 +15°C° 0 mm 1 m/s 586 mm Hg 66%
10:00 +18°C° 0 mm 1 m/s 587 mm Hg 59%
11:00 +18°C° 0.3 mm 1 m/s 587 mm Hg 58%
12:00 +19°C° 0.3 mm 1 m/s 587 mm Hg 58%
13:00 +18°C° 0.3 mm 2 m/s 587 mm Hg 57%
14:00 +17°C° 0.7 mm 2 m/s 587 mm Hg 61%
15:00 +18°C° 0.7 mm 1 m/s 586 mm Hg 66%
16:00 +16°C° 0.7 mm 1 m/s 586 mm Hg 70%
17:00 +15°C° 1.2 mm 1 m/s 585 mm Hg 76%
18:00 +13°C° 1.2 mm 1 m/s 585 mm Hg 82%
19:00 +12°C° 1.2 mm 1 m/s 584 mm Hg 87%
20:00 +11°C° 0.3 mm 1 m/s 584 mm Hg 87%
21:00 +10°C° 0.3 mm 1 m/s 584 mm Hg 88%
22:00 +9°C° 0.3 mm 0 m/s 584 mm Hg 88%
23:00 +8°C° 0.1 mm 0 m/s 583 mm Hg 88%

17 Agosto, Lunedi

Tempo Temperatura Precipitazioni Vento Pressione Umidità
00:00 +9°C° 0.1 mm 1 m/s 583 mm Hg 88%
01:00 +8°C° 0.1 mm 1 m/s 583 mm Hg 88%
02:00 +8°C° 0 mm 1 m/s 582 mm Hg 89%
03:00 +8°C° 0 mm 1 m/s 582 mm Hg 89%
04:00 +8°C° 0 mm 1 m/s 582 mm Hg 90%
05:00 +8°C° 0.1 mm 0 m/s 583 mm Hg 88%
06:00 +9°C° 0.1 mm 0 m/s 583 mm Hg 87%
07:00 +10°C° 0.1 mm 0 m/s 584 mm Hg 85%
08:00 +12°C° 0.3 mm 1 m/s 584 mm Hg 81%
09:00 +13°C° 0.3 mm 1 m/s 585 mm Hg 77%
10:00 +15°C° 0.3 mm 1 m/s 586 mm Hg 72%
11:00 +15°C° 0.6 mm 1 m/s 586 mm Hg 71%
12:00 +15°C° 0.6 mm 2 m/s 586 mm Hg 70%
13:00 +16°C° 0.6 mm 2 m/s 586 mm Hg 68%
14:00 +16°C° 1.1 mm 2 m/s 585 mm Hg 71%
15:00 +15°C° 1.1 mm 2 m/s 585 mm Hg 75%
16:00 +15°C° 1.1 mm 2 m/s 585 mm Hg 78%
17:00 +13°C° 0.9 mm 1 m/s 584 mm Hg 82%
18:00 +12°C° 0.9 mm 1 m/s 584 mm Hg 86%
19:00 +11°C° 0.9 mm 1 m/s 584 mm Hg 90%
20:00 +10°C° 0.9 mm 1 m/s 584 mm Hg 90%
21:00 +10°C° 0.9 mm 1 m/s 584 mm Hg 91%
22:00 +9°C° 0.9 mm 1 m/s 584 mm Hg 91%
23:00 +9°C° 1.5 mm 1 m/s 584 mm Hg 92%

18 Agosto, Martedi

Tempo Temperatura Precipitazioni Vento Pressione Umidità
00:00 +7°C° 1.5 mm 2 m/s 583 mm Hg 92%
01:00 +7°C° 1.5 mm 2 m/s 583 mm Hg 93%
02:00 +6°C° 0 mm 2 m/s 583 mm Hg 92%
03:00 +5°C° 0 mm 2 m/s 582 mm Hg 92%
04:00 +4°C° 0 mm 2 m/s 582 mm Hg 91%
05:00 +5°C° 0 mm 2 m/s 582 mm Hg 89%
06:00 +6°C° 0 mm 2 m/s 583 mm Hg 88%
07:00 +7°C° 0 mm 2 m/s 583 mm Hg 86%
08:00 +9°C° 0 mm 2 m/s 584 mm Hg 76%
09:00 +12°C° 0 mm 1 m/s 585 mm Hg 66%
10:00 +14°C° 0 mm 1 m/s 586 mm Hg 56%
11:00 +15°C° 0.1 mm 1 m/s 586 mm Hg 53%
12:00 +16°C° 0.1 mm 1 m/s 587 mm Hg 50%
13:00 +18°C° 0.1 mm 1 m/s 587 mm Hg 47%
14:00 +18°C° 0.2 mm 1 m/s 587 mm Hg 48%
15:00 +16°C° 0.2 mm 1 m/s 587 mm Hg 48%
16:00 +16°C° 0.2 mm 1 m/s 587 mm Hg 49%
17:00 +14°C° 0.3 mm 1 m/s 586 mm Hg 59%
18:00 +12°C° 0.3 mm 1 m/s 585 mm Hg 69%
19:00 +10°C° 0.3 mm 1 m/s 584 mm Hg 80%
20:00 +8°C° 0.2 mm 2 m/s 584 mm Hg 82%
21:00 +7°C° 0.2 mm 2 m/s 584 mm Hg 85%
22:00 +6°C° 0.2 mm 2 m/s 584 mm Hg 88%
23:00 +5°C° 0 mm 2 m/s 584 mm Hg 88%

19 Agosto, Mercoledi

Tempo Temperatura Precipitazioni Vento Pressione Umidità
00:00 +5°C° 0 mm 2 m/s 583 mm Hg 89%
01:00 +5°C° 0 mm 2 m/s 583 mm Hg 89%
02:00 +4°C° 0 mm 2 m/s 583 mm Hg 88%
03:00 +5°C° 0 mm 1 m/s 583 mm Hg 86%
04:00 +5°C° 0 mm 1 m/s 583 mm Hg 85%
05:00 +6°C° 0 mm 1 m/s 583 mm Hg 82%
06:00 +7°C° 0 mm 1 m/s 584 mm Hg 80%
07:00 +8°C° 0 mm 1 m/s 584 mm Hg 77%
08:00 +10°C° 0 mm 1 m/s 585 mm Hg 69%
09:00 +12°C° 0 mm 1 m/s 586 mm Hg 60%
10:00 +14°C° 0 mm 1 m/s 587 mm Hg 52%
11:00 +15°C° 0 mm 1 m/s 587 mm Hg 49%
12:00 +16°C° 0 mm 1 m/s 587 mm Hg 45%
13:00 +18°C° 0 mm 1 m/s 588 mm Hg 42%
14:00 +18°C° 0.1 mm 1 m/s 587 mm Hg 44%
15:00 +16°C° 0.1 mm 1 m/s 587 mm Hg 46%
16:00 +16°C° 0.1 mm 1 m/s 587 mm Hg 47%
17:00 +14°C° 0.1 mm 1 m/s 586 mm Hg 59%
18:00 +12°C° 0.1 mm 1 m/s 585 mm Hg 70%
19:00 +9°C° 0.1 mm 0 m/s 584 mm Hg 82%
20:00 +9°C° 0 mm 1 m/s 584 mm Hg 82%
21:00 +8°C° 0 mm 1 m/s 584 mm Hg 83%
22:00 +7°C° 0 mm 1 m/s 583 mm Hg 84%
23:00 +7°C° 0 mm 1 m/s 583 mm Hg 83%
Mostrare altro